OBJECT D, 62728

Orbit data source: Space-Track

You're viewing an Uncataloged Satellite

Recently launched and/or uncataloged satellites may have evolving metadata. Metadata may include but not limited to: Owner, Maufacturer, Bus, Motor, and Mission.

OBJECT D, 62728 is a satellite owned by CASC (CN) in SSO that was launched on Fri, 17 Jan 2025 UTC launched from the Jiuquan Satellite Launch Center, China (JSC). Unknown objects in Earth's orbit typically refer to objects detected orbiting the Earth but have not yet been identified or cataloged. These objects could be anything from previously untracked satellites, spent rocket stages, debris from satellite collisions, or even natural meteoroids temporarily captured by Earth's gravity.

Loading next visibility...
Identifier
62728, 2025-012D
Orbit
SSO
Country
Flag of CNCN / PRC
Related business
Manufacturer
BWYIC
Mission
Spacecraft
Bus & Motor
CZ-2 STAGE 2, Unknown motor
Mass
4,006 kg wet, 4,006 kg dry
Launch date (UTC)
2025-01-17 (10 months ago)
Launch vehicle
Unknown
Launch site
Jiuquan Satellite Launch Center, China (JSC)
Object type
Unknown
Shape & HBR
Cyl + 1 Sail, 3.0 m
Radar Cross Section
27.824 m², Large (>1 m²)

Expand to show TLE details & history
Last TLE update: 1 day ago

TLE from 1 day ago
0 OBJECT D
1 62728U 25012D   25312.64499525  .00071150  00000-0  21336-2 0  9993
2 62728  97.4459  26.9525 0005552 304.2472  55.8245 15.34196734 44935
Epoch: 2025-11-08T15:28Z
TLE epoch observation values (Epoch: 2025-11-08T15:28:47.589Z)
Latitude
0.00003°
Longitude
106.68257°
Altitude
464.283 km
Speed
7.636 km/s
True Right ascension
01h 47m 48s
True Declination
0° 00' 00"
Sunlit
Object was in full shadow at epoch
Visualization orbit readout
Latitude
Unknown
Longitude
Unknown
Altitude
Unknown
Speed
Unknown
Apparent Right ascension
Unknown
Apparent Declination
Unknown
Sunlit
N/A
Visualization observer readout
Local Sidereal Time
14:11:59
Azimuth
Unknown
Elevation
Unknown
Doppler factor
Unknown
Orbital elements
Apogee altitude
464.053 km
Perigee altitude
456.459 km
Semi-major axis
6,838.393 km
Eccentricity
0.00056
Inclination
97.4459°
RAAN
26.9525°
Arg. of periapsis
304.2472°
True anomaly
55.87716°
Mean anomaly
55.8245°
Eccentric anomaly
55.85083°
Mean motion
3.83806 °/min
Orbital period
93.8 mins
BSTAR
0.0021336
Loading maneuver chart data...
Computing Atmospheric mass density...
Loading historical data...
Loading historical data...
Loading historical data...
Loading historical data...
Loading historical data...
Loading historical data...
Loading historical data...
Other satellites on launch #12 in the year 2025 (2025-01-17 UTC)

Documentation

Showing up to 5 results
|